Location: Latina
(41.4670°N, 12.8670°E)
Time: 21:25:13
(UTC+02:00)

ISS - Pass Details

Date: 17 May 2021
Orbit: 417 x 422 km, 51.6° (Epoch: 22 June)

Event Time Altitude Azimuth Distance (km) Brightness Sun altitude
Rises 22:04:00 0° 257° (WSW) 2,355 0.5 -16.0°
Reaches altitude 10° 22:06:13 10° 268° (W) 1,495 -0.4 -16.3°
Maximum altitude 22:09:18 33° 334° (NNW) 729 -1.9 -16.7°
Drops below altitude 10° 22:12:24 10° 41° (NE) 1,503 -0.9 -17.1°
Sets 22:14:38 0° 51° (NE) 2,370 0.0 -17.4°
